Weather Service Report


891 
ASUS43 KTOP 230808
RWRKS 

WEATHER ROUNDUP FOR KANSAS
NATIONAL WEATHER SERVICE GOODLAND KS
300 AM CDT SAT MAY 23 2015

NOTE:  "FAIR" INDICATES FEW OR NO CLOUDS BELOW 12,000 FEET WITH NO
SIGNIFICANT WEATHER AND/OR OBSTRUCTIONS TO VISIBILITY.

KSZ001>006-013>018-027>032-041>047-230900-
NORTHWEST KANSAS
  
CITY           SKY/WX    TMP DP  RH WIND       PRES   REMARKS
GOODLAND       CLOUDY    53  53 100 SE20      30.02F FOG              
HAYS           CLOUDY    54  46  76 SE13      30.11F                  
HILL CITY      CLOUDY    55  53  93 S13       30.10F                  
RUSSELL        LGT RAIN  54  54 100 S14       30.11F                  
$$

KSZ061>065-074>080-084>089-230900-
SOUTHWEST KANSAS
  
CITY           SKY/WX    TMP DP  RH WIND       PRES   REMARKS
DODGE CITY     FOG       54  52  93 SE14      30.07F VSB 3/4          
ELKHART          N/A     57  53  86 S12         N/A                   
GARDEN CITY    FOG       53  53 100 SE15      30.04F VSB 3/4          
GREAT BEND     CLOUDY    54  50  87 SE9       30.12F                  
LIBERAL        CLOUDY    57  54  88 SE10      30.04F                  
PRATT          CLOUDY    52  52 100 SE10      30.13F FOG              
$$

KSZ066>073-081>083-090>101-230900-
SOUTHEAST KANSAS
  
CITY           SKY/WX    TMP DP  RH WIND       PRES   REMARKS
CHANUTE        CLOUDY    58  55  90 S3        30.19R                  
COFFEYVILLE    LGT RAIN  58  55  90 S7        30.19R                  
HUTCHINSON     CLOUDY    55  53  93 SE7       30.15F FOG              
MEDICINE LODGE   N/A     54  54 100 SE6       30.12F                  
NEWTON         CLOUDY    54  48  82 S7        30.18F                  
PARSONS        CLOUDY    60  55  83 CALM      30.20R                  
WICHITA INTL   CLOUDY    55  54  96 SE8       30.15F FOG              
WICHITA JABRA  CLOUDY    54  54 100 SE7       30.16S FOG              
WICHITA MCCONL CLOUDY    55  54  97 SE7       30.16F FOG              
WINFIELD       CLOUDY    56  55  97 SE7       30.17F FOG              
$$

KSZ007>012-019>026-033>040-048>060-102>105-230900-
NORTHEAST KANSAS
  
CITY           SKY/WX    TMP DP  RH WIND       PRES   REMARKS
CONCORDIA      CLOUDY    54  51  90 SE8       30.16F                  
EMPORIA        CLOUDY    55  54  96 S5        30.18S                  
LAWRENCE       CLOUDY    60  52  74 SE6       30.19S                  
MANHATTAN      CLOUDY    58  53  84 CALM      30.17S                  
MARYSVILLE     CLOUDY    55  50  82 SE5       30.17S                  
OLATHE IND     CLOUDY    60  51  72 SE14      30.20S                  
OLATHE EXE     CLOUDY    60  51  72 SE9       30.19S                  
SALINA         CLOUDY    55  53  93 SE7       30.16F                  
TOPEKA BILLARD CLOUDY    60  53  77 SE7       30.18S                  
TOPEKA FORBES  CLOUDY    60  52  74 SE8       30.18R                  
$$

Return to Home page


Western Regional Climate Center, wrcc@dri.edu